Location: Palm Bay
(27.9400°N, 80.7200°W)
Time: 04:09:00
(UTC-04:00)

Daily predictions for brighter satellites

Satellite Brightness Start Highest point End
(mag) Time Altitude Azimuth Time Altitude Azimuth Time Altitude Azimuth
FALCON 9 R/B 4.4 03:31:24 67° NNE 03:31:24 67° NNE 04:07:22 10° E
COSMOS 2428 4.3 04:32:15 31° E 04:32:15 31° E 04:36:30 10° NE
Cosmos 2219 Rocket 4.5 04:36:44 15° SE 04:38:54 18° E 04:42:37 10° ENE
Cosmos 2360 Rocket 3.6 04:57:54 29° N 04:57:54 29° N 05:00:38 10° N
Okean O Rocket 3.4 05:07:59 10° N 05:09:49 25° N 05:09:49 25° N
PAYLOAD B 4.1 05:12:26 10° NNE 05:18:04 85° WNW 05:18:05 85° W
Cosmos 2333 Rocket 3.6 05:15:18 13° SSE 05:19:42 36° ESE 05:24:52 10° NE
DELTA 2 R/B (1) 4.3 05:20:34 39° NNW 05:20:34 39° NNW 05:25:41 10° NE
Cosmos 2184 Rocket 3.8 05:14:25 10° N 05:20:38 78° W 05:22:49 43° S
Okean-O 4.5 05:18:30 10° NE 05:22:22 29° E 05:26:12 10° SSE
Meteor 1-12 Rocket 4.2 05:17:13 10° N 05:22:54 82° E 05:28:38 10° S
Cosmos 1777 Rocket 4.0 05:20:26 10° NNW 05:25:45 83° ENE 05:31:02 10° SSE
ASTRO E2 3.5 05:27:46 49° E 05:27:46 49° E 05:30:47 10° ESE
Cosmos 1743 4.4 05:27:08 10° NNE 05:30:39 33° E 05:34:09 10° SSE
ADEOS II 1.9 05:25:40 10° N 05:30:52 68° WNW 05:30:52 68° WNW
Meteor 1-31 Rocket 4.2 05:28:06 10° NNE 05:31:36 35° E 05:33:56 18° SSE
EO 1 Del DPAF 4.3 05:34:09 36° N 05:34:09 36° N 05:36:33 10° N
Lacrosse 5 1.7 05:34:52 73° WSW 05:34:57 73° SW 05:39:59 10° SSE
Meteor 1-13 Rocket 4.1 05:33:00 28° S 05:35:59 87° E 05:41:34 10° N
Hubble Space Telescope 2.3 05:43:12 25° S 05:43:41 26° SSE 05:47:08 10° E
Cosmos 2333 4.3 05:46:11 46° WSW 05:47:19 54° WNW 05:52:52 10° N
Cosmos 2208 Rocket 4.5 05:53:05 39° W 05:53:36 40° WNW 05:58:43 10° N
Cosmos 2154 Rocket 3.9 05:48:06 10° N 05:54:18 81° W 06:00:29 10° S
Lacrosse 4 Rocket 1.9 05:50:19 10° NNW 05:54:31 62° ENE 05:58:47 10° SSE
Aureole 2 Rocket 4.0 05:51:11 10° S 05:54:50 39° ESE 05:58:14 10° NNE
CZ-4B R/B 3.9 05:58:43 10° N 06:03:39 33° WNW 06:04:58 29° W
Okean 1-7 Rocket 3.5 05:59:58 10° S 06:04:30 77° W 06:09:01 10° N
Meteor PRIRODA 3.9 06:01:13 10° N 06:04:49 46° WNW 06:05:25 42° WSW
GOES 2 Rocket 3.5 06:02:58 33° W 06:05:21 85° N 06:11:50 10° E
Cosmos 2181 Rocket 3.9 06:00:22 10° SSW 06:06:29 72° W 06:12:44 10° N
Cosmos 1980 3.7 06:04:07 10° SSW 06:09:46 87° ESE 06:15:26 10° NNE
OTV 4 2.2 06:10:07 19° S 06:11:10 24° SE 06:13:29 10° E
USA 215 3.2 06:04:55 10° SE 06:11:28 81° SW 06:18:04 10° NW
PSLV R/B 3.2 06:11:24 40° WNW 06:12:25 65° SW 06:15:46 10° SE
Meteor 1-23 Rocket 4.2 06:08:31 10° S 06:14:19 86° W 06:20:08 10° N
COSMOS 2428 3.7 06:14:19 23° W 06:15:43 25° WNW 06:20:22 10° N
CZ-2C R/B 4.2 06:13:54 10° SSW 06:18:10 36° W 06:22:23 10° NNW
SL-8 Rocket 4.4 06:12:06 10° N 06:18:16 67° E 06:24:22 10° SSE
Delta 142 4.1 06:14:11 22° W 06:18:27 75° SSW 06:23:28 10° ESE
GPS 2-18 Rocket1 4.4 06:17:05 21° SW 06:18:47 29° S 06:22:18 10° ESE
Thor Agena Rocket 4.0 06:14:35 10° SSE 06:19:36 65° ENE 06:24:36 10° N
USA 229 DEB 4.0 06:15:49 18° SW 06:20:45 48° WNW 06:27:23 10° NNE
USA 229 3.9 06:15:53 18° SW 06:20:51 49° WNW 06:27:29 10° NNE
Cosmos 2219 Rocket 2.6 06:18:32 17° SW 06:22:26 41° WNW 06:27:41 10° N
GPS 2-04 Rocket1 2.5 06:21:03 25° WSW 06:23:15 85° NNW 06:27:01 10° ENE
ERS-2 3.1 06:20:43 10° NNW 06:23:54 28° WNW 06:25:12 22° WSW
Okean 2 3.3 06:20:26 10° S 06:24:34 82° W 06:28:44 10° N
Radarsat Rocket 4.1 06:20:06 10° NNE 06:25:59 79° ESE 06:31:51 10° SSW
ISS -3.9 06:24:19 14° NW 06:27:03 69° SW 06:30:19 10° SE
GENESIS II 4.4 06:24:36 14° SW 06:27:53 56° WNW 06:31:53 10° NNE
Meteor 2-9 Rocket 4.2 06:24:48 10° N 06:30:27 88° W 06:35:55 10° S
Cosmos 2341 Rocket 4.1 06:25:50 10° NNW 06:31:50 51° W 06:37:47 10° SSW
Cosmos 1606 Rocket 4.3 06:27:36 10° N 06:32:00 58° E 06:36:24 10° SSE
NOSS 3-1 (A) 4.0 06:27:51 10° SSW 06:33:19 57° ESE 06:39:16 10° NE
NOSS 3-1 (C) 3.3 06:31:26 10° SSW 06:37:02 90° ESE 06:43:09 10° NNE
Cosmos 1844 Rocket 2.6 06:33:05 10° NNW 06:38:37 69° WSW 06:44:07 10° S
Cosmos 2218 Rocket 4.1 06:34:58 10° N 06:41:22 88° E 06:47:40 10° S
Cosmos 371 Rocket 3.3 06:39:29 10° SSW 06:44:19 89° ESE 06:49:12 10° NNE
Cosmos 1441 Rocket 3.3 06:41:27 10° S 06:45:21 84° E 06:49:20 10° N
Cosmos 1898 Rocket 3.5 06:40:14 10° NNW 06:45:26 89° WSW 06:50:36 10° SSE
Meteor 2-4 Rocket 4.4 06:40:50 10° SW 06:45:48 31° WNW 06:50:41 10° NNW
Cosmos 332 Rocket 3.8 06:42:09 10° SSW 06:46:59 62° WNW 06:51:51 10° N
Cosmos 2237 Rocket 2.5 06:41:55 10° SW 06:47:18 45° WNW 06:52:45 10° N
CZ-4 R/B 4.4 06:45:04 10° NE 06:47:54 19° E 06:50:43 10° SE
Cosmos 405 Rocket 3.5 06:45:14 10° SW 06:48:56 33° W 06:52:38 10° NNW
Cosmos 2278 Rocket 3.1 06:43:28 10° N 06:49:00 54° ENE 06:54:31 10° SE
COSMO-SKYMED 1 2.6 06:48:16 10° SSE 06:52:36 87° WSW 06:56:57 10° NNW
Centaur AC-64 3.5 06:51:29 10° SW 06:52:42 14° S 06:54:08 10° SSE
Cosmos 1515 3.7 06:50:07 10° SSW 06:53:56 67° W 06:57:45 10° N
Ariane Rocket 3.2 06:52:46 10° NNE 06:57:49 78° ESE 07:02:51 10° S
Okean-O 4.1 06:55:39 10° NNW 06:58:34 17° WNW 07:01:29 10° WSW
